Chester, CT

12:16 PM EST on November 13, 2019 (GMT -0500)
Chester

Weather History for KSNC - October, 2019

Change the Weather History Date:

Wednesday, October 23, 2019

  Actual Average (WUND) Record (WUND)
Temperature  
Mean Temperature 60 °F -  
Max Temperature 68 °F - - (-1)
Min Temperature 50 °F - - (-1)
Degree Days  
Heating Degree Days 6    
Growing Degree Days 10 (Base 50)    
Moisture  
Dew Point 46 °F    
Average Humidity 65    
Maximum Humidity 100    
Minimum Humidity 30    
Precipitation  
Precipitation 0.00 in - - ()
Sea Level Pressure  
Sea Level Pressure 29.90 in    
Wind  
Wind Speed 6 mph ()    
Max Wind Speed 21 mph    
Max Gust Speed 25 mph    
Visibility 8.0 miles    
Events Rain    
Averages and records for this station are not official NWS values.
T = Trace of Precipitation, MM = Missing Value Source: Averaged Metar Reports

Daily Weather History Graph

Daily Weather History Graph

Search for Another Location

Airport or City:

Astronomy

Oct. 23, 2019 Rise Set
Actual Time 7:10 AM EDT 5:57 PM EDT
Civil Twilight 6:42 AM EDT 6:25 PM EDT
Nautical Twilight 6:10 AM EDT 6:57 PM EDT
Astronomical Twilight 5:38 AM EDT 7:29 PM EDT
Moon 1:20 AM EDT (10/23) 3:50 PM EDT (10/23)
Length of Visible Light 11h 43m
Length of Day
10h 46m
Waning Crescent, 27% of the Moon is Illuminated
Oct 23
Waning Crescent
Oct 27
New
Nov 4
First Quarter
Nov 12
Full
Nov 19
Last Quarter

Hourly Weather History & Observations

Time (EDT) Temp. Dew Point Humidity Pressure Visibility Wind Dir Wind Speed Gust Speed Precip Events Conditions
12:15 AM 57.2 °F 57.2 °F 100% 29.84 in 3.0 mi Variable 4.6 mph - N/A Rain Light Rain
12:35 AM 57.2 °F 57.2 °F 100% 29.83 in 3.0 mi ESE 6.9 mph - N/A Rain Light Rain
12:55 AM 57.2 °F 57.2 °F 100% 29.82 in 2.5 mi ESE 5.8 mph - N/A Rain Light Rain
1:15 AM 57.2 °F 57.2 °F 100% 29.80 in 1.5 mi Variable 3.5 mph - N/A Rain Light Rain
1:35 AM 59.0 °F 59.0 °F 100% 29.79 in 1.0 mi Variable 4.6 mph - N/A Rain Light Rain
1:55 AM 59.0 °F 59.0 °F 100% 29.78 in 1.5 mi Calm Calm - N/A Rain Light Rain
2:15 AM 59.0 °F 59.0 °F 100% 29.78 in 2.0 mi Variable 3.5 mph - N/A Rain Light Rain
2:35 AM 59.0 °F 59.0 °F 100% 29.77 in 0.8 mi Calm Calm - N/A Rain Light Rain
2:55 AM 60.8 °F 60.8 °F 100% 29.75 in 0.8 mi SE 4.6 mph - N/A Rain Light Rain
3:15 AM 60.8 °F 60.8 °F 100% 29.75 in 0.5 mi SE 4.6 mph - N/A Rain Light Rain
3:35 AM 60.8 °F 60.8 °F 100% 29.74 in 2.0 mi SSE 4.6 mph - N/A Rain Light Rain
3:55 AM 60.8 °F 60.8 °F 100% 29.73 in 1.5 mi Calm Calm - N/A Rain Light Rain
4:15 AM 62.6 °F 62.6 °F 100% 29.73 in 1.2 mi SSE 4.6 mph - N/A   Light Drizzle
4:35 AM 62.6 °F 62.6 °F 100% 29.73 in 1.5 mi Calm Calm - N/A Rain Light Rain
4:55 AM 64.4 °F 64.4 °F 100% 29.73 in 1.8 mi Variable 3.5 mph - N/A Rain Rain
5:15 AM 59.0 °F 59.0 °F 100% 29.76 in 5.0 mi NNW 12.7 mph 20.7 mph N/A Rain Light Rain
5:35 AM 57.2 °F 57.2 °F 100% 29.76 in 7.0 mi NNW 10.4 mph 17.3 mph N/A   Overcast
5:55 AM 57.2 °F 57.2 °F 100% 29.76 in 5.0 mi NNW 11.5 mph 17.3 mph N/A Rain Light Rain
6:15 AM 57.2 °F 57.2 °F 100% 29.76 in 3.0 mi NNW 20.7 mph - N/A   Overcast
6:35 AM 55.4 °F 55.4 °F 100% 29.76 in 8.0 mi NNW 13.8 mph 25.3 mph N/A   Overcast
6:55 AM 55.4 °F 55.4 °F 100% 29.77 in 10.0 mi NNW 10.4 mph 20.7 mph N/A   Scattered Clouds
7:15 AM 55.4 °F 53.6 °F 94% 29.78 in 10.0 mi NNW 10.4 mph - N/A   Scattered Clouds
7:35 AM 55.4 °F 53.6 °F 94% 29.78 in 10.0 mi NNW 10.4 mph - N/A   Partly Cloudy
7:55 AM 55.4 °F 53.6 °F 94% 29.78 in 10.0 mi NNW 9.2 mph - N/A   Clear
8:15 AM 55.4 °F 53.6 °F 94% 29.80 in 10.0 mi NW 10.4 mph - N/A   Clear
8:35 AM 57.2 °F 53.6 °F 88% 29.82 in 10.0 mi NW 9.2 mph 18.4 mph N/A   Clear
8:55 AM 59.0 °F 53.6 °F 82% 29.83 in 10.0 mi NW 9.2 mph - N/A   Clear
9:15 AM 59.0 °F 51.8 °F 77% 29.84 in 10.0 mi NW 11.5 mph 20.7 mph N/A   Clear
9:35 AM 60.8 °F 51.8 °F 72% 29.84 in 10.0 mi NW 12.7 mph 20.7 mph N/A   Clear
9:55 AM 60.8 °F 50.0 °F 68% 29.85 in 10.0 mi NW 12.7 mph - N/A   Clear
10:15 AM 62.6 °F 48.2 °F 59% 29.86 in 10.0 mi NW 12.7 mph 24.2 mph N/A   Clear
10:35 AM 62.6 °F 48.2 °F 59% 29.87 in 10.0 mi WNW 10.4 mph 18.4 mph N/A   Clear
10:55 AM - - N/A% - 10.0 mi North - - N/A   Clear
11:15 AM 64.4 °F 44.6 °F 49% 29.87 in 10.0 mi WNW 11.5 mph 19.6 mph N/A   Clear
11:35 AM 64.4 °F 44.6 °F 49% 29.88 in 10.0 mi NNW 11.5 mph 17.3 mph N/A   Clear
11:55 AM 66.2 °F 42.8 °F 43% 29.88 in 10.0 mi NW 9.2 mph 20.7 mph N/A   Clear
12:15 PM 64.4 °F 42.8 °F 45% 29.88 in 10.0 mi Variable 6.9 mph 20.7 mph N/A   Scattered Clouds
12:35 PM 66.2 °F 42.8 °F 43% 29.88 in 10.0 mi NW 9.2 mph 16.1 mph N/A   Partly Cloudy
12:55 PM 66.2 °F 42.8 °F 43% 29.87 in 10.0 mi NNW 12.7 mph 19.6 mph N/A   Scattered Clouds
1:15 PM 62.6 °F 42.8 °F 48% 29.87 in 10.0 mi NW 10.4 mph 17.3 mph N/A   Scattered Clouds
1:35 PM 66.2 °F 41.0 °F 40% 29.88 in 10.0 mi WNW 8.1 mph 18.4 mph N/A   Clear
1:55 PM 68.0 °F 41.0 °F 37% 29.89 in 10.0 mi West 11.5 mph 18.4 mph N/A   Partly Cloudy
2:15 PM 68.0 °F 37.4 °F 33% 29.89 in 10.0 mi West 8.1 mph 17.3 mph N/A   Partly Cloudy
2:35 PM 68.0 °F 35.6 °F 30% 29.89 in 10.0 mi WNW 8.1 mph 19.6 mph N/A   Partly Cloudy
2:55 PM 68.0 °F 35.6 °F 30% 29.90 in 10.0 mi WNW 6.9 mph 18.4 mph N/A   Partly Cloudy
3:15 PM 66.2 °F 35.6 °F 32% 29.90 in 10.0 mi NW 9.2 mph 20.7 mph N/A   Clear
3:35 PM 66.2 °F 35.6 °F 32% 29.91 in 10.0 mi WNW 9.2 mph 17.3 mph N/A   Clear
3:55 PM 66.2 °F 35.6 °F 32% 29.91 in 10.0 mi WNW 13.8 mph 19.6 mph N/A   Clear
4:15 PM 66.2 °F 37.4 °F 35% 29.92 in 10.0 mi Variable 5.8 mph 15.0 mph N/A   Clear
4:35 PM 66.2 °F 37.4 °F 35% 29.93 in 10.0 mi Variable 6.9 mph 13.8 mph N/A   Clear
4:55 PM 64.4 °F 33.8 °F 32% 29.94 in 10.0 mi Variable 5.8 mph 17.3 mph N/A   Clear
5:15 PM 64.4 °F 32.0 °F 30% 29.95 in 10.0 mi Variable 6.9 mph - N/A   Clear
5:35 PM 62.6 °F 33.8 °F 34% 29.96 in 10.0 mi West 4.6 mph 15.0 mph N/A   Clear
5:55 PM 60.8 °F 33.8 °F 36% 29.98 in 10.0 mi Variable 4.6 mph - N/A   Clear
6:15 PM 59.0 °F 33.8 °F 39% 29.99 in 10.0 mi West 4.6 mph - N/A   Clear
6:35 PM 57.2 °F 33.8 °F 41% 30.00 in 10.0 mi West 4.6 mph - N/A   Clear
6:55 PM 55.4 °F 35.6 °F 47% 30.02 in 10.0 mi Calm Calm - N/A   Clear
7:15 PM 55.4 °F 33.8 °F 44% 30.03 in 10.0 mi West 4.6 mph - N/A   Clear
7:35 PM 55.4 °F 33.8 °F 44% 30.04 in 10.0 mi West 4.6 mph - N/A   Clear
7:55 PM 55.4 °F 33.8 °F 44% 30.05 in 10.0 mi Variable 4.6 mph - N/A   Clear
8:15 PM 53.6 °F 33.8 °F 47% 30.07 in 10.0 mi West 4.6 mph - N/A   Clear
8:35 PM 53.6 °F 33.8 °F 47% 30.08 in 10.0 mi West 4.6 mph - N/A   Clear
8:55 PM 53.6 °F 33.8 °F 47% 30.09 in 10.0 mi Calm Calm - N/A   Clear
9:15 PM 51.8 °F 33.8 °F 50% 30.09 in 10.0 mi West 4.6 mph - N/A   Clear
9:35 PM 53.6 °F 33.8 °F 47% 30.10 in 10.0 mi West 4.6 mph - N/A   Clear
9:55 PM 51.8 °F 33.8 °F 50% 30.11 in 10.0 mi West 3.5 mph - N/A   Clear
10:15 PM 51.8 °F 33.8 °F 50% 30.12 in 10.0 mi West 3.5 mph - N/A   Clear
10:35 PM 53.6 °F 33.8 °F 47% 30.12 in 10.0 mi West 5.8 mph - N/A   Clear
10:55 PM 51.8 °F 33.8 °F 50% 30.13 in 10.0 mi West 3.5 mph - N/A   Clear
11:15 PM 51.8 °F 33.8 °F 50% 30.13 in 10.0 mi West 4.6 mph - N/A   Clear
11:35 PM 51.8 °F 35.6 °F 54% 30.13 in 10.0 mi Calm Calm - N/A   Clear
11:55 PM 50.0 °F 33.8 °F 54% 30.14 in 10.0 mi West 3.5 mph - N/A   Clear